This demonstration page uses our WeatherBlox Daily Observations layout. Learn more.

Left ArrowRight Arrow

38.83388, -104.82136

Hourly Observations for April 9, 2022

Temp ( °F °C ) Dew Point ( °F °C ) Humidity (%) Winds ( mph kmh ) Pressure ( in mb ) Visibility ( mi km ) Precip ( " mm )
12:58 am 00:58 Clear 44 6.9 13 -10.8 27 27 W 6 9 29.75 1007 10 16 0.00 0.00
1:58 am 01:58 Clear 47 8.1 11 -11.8 23 23 Calm 29.70 1006 10 16 0.00 0.00
2:58 am 02:58 Mostly Clear 47 8.4 11 -11.6 23 23 Calm 29.70 1006 10 16 0.00 0.00
3:58 am 03:58 Mostly Cloudy 51 10.7 10 -12 19 19 ESE 5 7 29.67 1005 10 16 0.00 0.00
4:58 am 04:58 Partly Cloudy 53 11.4 9 -12.8 17 17 SSE 7 11 29.66 1004 10 16 0.00 0.00
5:58 am 05:58 Mostly Clear 52 10.9 8 -13.2 17 17 SE 6 9 29.65 1004 10 16 0.00 0.00
6:58 am 06:58 Sunny 51 10.7 9 -12.7 18 18 SSW 6 9 29.66 1005 10 16 0.00 0.00
7:58 am 07:58 Sunny 57 14 8 -13.1 14 14 Calm 29.68 1005 10 16 0.00 0.00
8:58 am 08:58 Sunny 59 15.1 8 -13.2 13 13 ESE 6 9 29.72 1006 10 16 0.00 0.00
9:58 am 09:58 Sunny 61 16.3 10 -12.2 13 13 Calm 29.73 1007 10 16 0.00 0.00
10:58 am 10:58 Sunny 67 19.7 11 -11.6 11 11 NNE 5 7 29.69 1005 10 16 0.00 0.00
11:39 am 11:39 Sunny 66 19 10 -12 11 11 ESE 13 20 29.67 1005 10 16 0.00 0.00
11:58 am 11:58 Sunny 68 19.8 11 -11.5 11 11 E 12 19 29.65 1004 10 16 0.00 0.00
11:59 am 11:59 Sunny 68 20 12 -11 11 11 SE 15 24 29.65 1004 10 16 0.00 0.00
12:27 pm 12:27 Sunny 68 20 9 -13 10 10 ESE 16 26 29.65 1004 10 16 0.00 0.00
12:28 pm 12:28 Sunny 68 20 9 -13 10 10 S 12 19 29.66 1004 10 16 0.00 0.00
12:58 pm 12:58 Sunny 69 20.7 2 -16.4 7 7 ENE 21 33 29.62 1003 10 16 0.00 0.00
1:10 pm 13:10 Sunny 70 21 5 -15 8 8 ESE 13 20 29.62 1003 10 16 0.00 0.00
1:57 pm 13:57 Sunny 70 21 7 -14 8 8 ESE 16 26 29.58 1002 10 16 0.00 0.00
1:58 pm 13:58 Sunny 70 21.3 6 -14.3 8 8 ESE 15 24 29.59 1002 10 16 0.00 0.00
2:58 pm 14:58 Mostly Cloudy 70 21 6 -14.6 8 8 NE 5 7 29.56 1001 10 16 0.00 0.00
3:23 pm 15:23 Mostly Cloudy 70 21 7 -14 8 8 ESE 21 33 29.56 1001 10 16 0.00 0.00
3:27 pm 15:27 Partly Cloudy 70 21 7 -14 8 8 E 17 28 29.54 1000 10 16 0.00 0.00
3:58 pm 15:58 Partly Cloudy 68 20 7 -13.9 9 9 ENE 10 17 29.48 998 10 16 0.00 0.00
4:58 pm 16:58 Mostly Cloudy 67 19.5 9 -13 10 10 E 8 13 29.42 996 10 16 0.00 0.00
5:58 pm 17:58 Partly Cloudy 65 18.5 7 -13.7 10 10 E 6 9 29.40 996 10 16 0.00 0.00
6:58 pm 18:58 Sunny 63 17.4 8 -13.4 11 11 ESE 7 11 29.37 995 10 16 0.00 0.00
7:58 pm 19:58 Clear 61 16.2 8 -13.3 12 12 SSE 5 7 29.32 993 10 16 0.00 0.00
8:58 pm 20:58 Clear 58 14.5 8 -13.6 13 13 SE 5 7 29.29 992 10 16 0.00 0.00
9:15 pm 21:15 Clear 61 16 3 -16 10 10 ENE 13 20 29.31 993 10 16 0.00 0.00
9:58 pm 21:58 Clear 60 15.7 1 -17.1 9 9 ENE 9 15 29.31 993 10 16 0.00 0.00
10:58 pm 22:58 Clear 60 15.4 3 -16.1 10 10 NE 10 17 29.25 991 10 16 0.00 0.00
11:23 pm 23:23 Clear 59 15 3 -16 10 10 WSW 13 20 29.23 990 10 16 0.00 0.00
11:31 pm 23:31 Clear 59 15 5 -15 11 11 W 18 30 29.23 990 10 16 0.00 0.00
11:32 pm 23:32 Clear 59 15 5 -15 11 11 WSW 13 20 29.23 990 10 16 0.00 0.00
11:41 pm 23:41 Clear 59 15 5 -15 11 11 NNE 13 20 29.22 990 10 16 0.00 0.00
11:58 pm 23:58 Clear 59 15.2 5 -15.1 11 11 E 18 30 29.22 990 10 16 0.00 0.00

Powered by AerisWeather